Time,TemperatureF,DewpointF,PressureIn,WindDirection,WindDirectionDegrees,WindSpeedMPH,WindSpeedGustMPH,Humidity,HourlyPrecipIn,Conditions,Clouds,dailyrainin,SolarRadiationWatts/m^2,SoftwareType,DateUTC
2013-03-03 00:11:00,67.0,-29.0,-100.00,NW,308,15.0,33.0,0,0.00,,,0.00,0.000000,,2013-03-03 10:11:00,
2013-03-03 00:21:00,67.0,-29.0,-100.00,NW,308,15.0,33.0,0,0.00,,,0.00,0.000000,,2013-03-03 10:21:00,
2013-03-03 00:32:00,67.0,-29.0,-100.00,NW,308,15.0,33.0,0,0.00,,,0.00,0.000000,,2013-03-03 10:32:00,
2013-03-03 00:42:00,67.0,-29.0,-100.00,NW,308,15.0,33.0,0,0.00,,,0.00,0.000000,,2013-03-03 10:42:00,
2013-03-03 00:51:00,67.0,-29.0,-100.00,NW,308,15.0,33.0,0,0.00,,,0.00,0.000000,,2013-03-03 10:51:00,
2013-03-03 00:52:00,65.0,-30.0,-100.00,SE,135,10.0,49.0,0,0.00,,,0.00,0.000000,,2013-03-03 10:52:00,
2013-03-03 01:11:00,65.0,-30.0,-100.00,SE,135,10.0,49.0,0,0.00,,,0.00,0.000000,,2013-03-03 11:11:00,
2013-03-03 01:21:00,65.0,-30.0,-100.00,SE,135,10.0,49.0,0,0.00,,,0.00,0.000000,,2013-03-03 11:21:00,
2013-03-03 01:31:00,65.0,-30.0,-100.00,SE,135,10.0,49.0,0,0.00,,,0.00,0.000000,,2013-03-03 11:31:00,
2013-03-03 01:41:00,65.0,-30.0,-100.00,SE,135,10.0,49.0,0,0.00,,,0.00,0.000000,,2013-03-03 11:41:00,
2013-03-03 01:52:00,64.0,-31.0,-100.00,ENE,72,14.0,36.0,0,0.00,,,0.00,0.000000,,2013-03-03 11:52:00,
2013-03-03 02:11:00,64.0,-31.0,-100.00,ENE,72,14.0,36.0,0,0.00,,,0.00,0.000000,,2013-03-03 12:11:00,
2013-03-03 02:21:00,64.0,-31.0,-100.00,ENE,72,14.0,36.0,0,0.00,,,0.00,0.000000,,2013-03-03 12:21:00,
2013-03-03 02:32:00,64.0,-31.0,-100.00,ENE,72,14.0,36.0,0,0.00,,,0.00,0.000000,,2013-03-03 12:32:00,
2013-03-03 02:42:00,64.0,-31.0,-100.00,ENE,72,14.0,36.0,0,0.00,,,0.00,0.000000,,2013-03-03 12:42:00,
2013-03-03 03:11:00,65.0,-30.0,-100.00,SW,230,17.0,49.0,0,0.00,,,0.00,0.000000,,2013-03-03 13:11:00,
2013-03-03 03:21:00,65.0,-30.0,-100.00,SW,230,17.0,49.0,0,0.00,,,0.00,0.000000,,2013-03-03 13:21:00,
2013-03-03 03:32:00,65.0,-30.0,-100.00,SW,230,17.0,49.0,0,0.00,,,0.00,0.000000,,2013-03-03 13:32:00,
2013-03-03 03:41:00,65.0,-30.0,-100.00,SW,230,17.0,49.0,0,0.00,,,0.00,0.000000,,2013-03-03 13:41:00,
2013-03-03 03:51:00,65.0,-30.0,-100.00,SW,230,17.0,49.0,0,0.00,,,0.00,0.000000,,2013-03-03 13:51:00,
2013-03-03 03:52:00,64.0,-31.0,-100.00,WSW,253,14.0,41.0,0,0.00,,,0.00,0.000000,,2013-03-03 13:52:00,
2013-03-03 04:21:00,64.0,-31.0,-100.00,WSW,253,14.0,41.0,0,0.00,,,0.00,0.000000,,2013-03-03 14:21:00,
2013-03-03 04:32:00,64.0,-31.0,-100.00,WSW,253,14.0,41.0,0,0.00,,,0.00,0.000000,,2013-03-03 14:32:00,
2013-03-03 04:42:00,64.0,-31.0,-100.00,WSW,253,14.0,41.0,0,0.00,,,0.00,0.000000,,2013-03-03 14:42:00,
2013-03-03 05:11:00,65.0,-30.0,-100.00,West,272,17.0,49.0,0,0.00,,,0.00,0.000000,,2013-03-03 15:11:00,
2013-03-03 05:22:00,65.0,-30.0,-100.00,West,272,17.0,49.0,0,0.00,,,0.00,0.000000,,2013-03-03 15:22:00,
2013-03-03 05:32:00,65.0,-30.0,-100.00,West,272,17.0,49.0,0,0.00,,,0.00,0.000000,,2013-03-03 15:32:00,
2013-03-03 05:42:00,65.0,-30.0,-100.00,West,272,17.0,49.0,0,0.00,,,0.00,0.000000,,2013-03-03 15:42:00,
2013-03-03 05:51:00,65.0,-30.0,-100.00,West,272,17.0,49.0,0,0.00,,,0.00,0.000000,,2013-03-03 15:51:00,
2013-03-03 06:12:00,65.0,-30.0,-100.00,ENE,61,9.0,36.0,0,0.00,,,0.00,0.000000,,2013-03-03 16:12:00,
2013-03-03 06:21:00,65.0,-30.0,-100.00,ENE,61,9.0,36.0,0,0.00,,,0.00,0.000000,,2013-03-03 16:21:00,
2013-03-03 06:31:00,65.0,-30.0,-100.00,ENE,61,9.0,36.0,0,0.00,,,0.00,0.000000,,2013-03-03 16:31:00,
2013-03-03 06:41:00,65.0,-30.0,-100.00,ENE,61,9.0,36.0,0,0.00,,,0.00,0.000000,,2013-03-03 16:41:00,
2013-03-03 06:51:00,65.0,-30.0,-100.00,ENE,61,9.0,36.0,0,0.00,,,0.00,0.000000,,2013-03-03 16:51:00,
2013-03-03 06:52:00,64.0,-31.0,-100.00,North,2,12.0,35.0,0,0.00,,,0.00,0.000000,,2013-03-03 16:52:00,
2013-03-03 07:11:00,64.0,-31.0,-100.00,North,2,12.0,35.0,0,0.00,,,0.00,0.000000,,2013-03-03 17:11:00,
2013-03-03 07:22:00,64.0,-31.0,-100.00,North,2,12.0,35.0,0,0.00,,,0.00,0.000000,,2013-03-03 17:22:00,
2013-03-03 07:32:00,64.0,-31.0,-100.00,North,2,12.0,35.0,0,0.00,,,0.00,0.000000,,2013-03-03 17:32:00,
2013-03-03 07:42:00,64.0,-31.0,-100.00,North,2,12.0,35.0,0,0.00,,,0.00,0.000000,,2013-03-03 17:42:00,
2013-03-03 07:52:00,64.0,-31.0,-100.00,SSW,193,16.0,36.0,0,0.00,,,0.00,4.000000,,2013-03-03 17:52:00,
2013-03-03 08:21:00,64.0,-31.0,-100.00,SSW,193,16.0,36.0,0,0.00,,,0.00,4.000000,,2013-03-03 18:21:00,
2013-03-03 08:31:00,64.0,-31.0,-100.00,SSW,193,16.0,36.0,0,0.00,,,0.00,4.000000,,2013-03-03 18:31:00,
2013-03-03 08:41:00,64.0,-31.0,-100.00,SSW,193,16.0,36.0,0,0.00,,,0.00,4.000000,,2013-03-03 18:41:00,
2013-03-03 09:11:00,70.0,-27.0,-100.00,South,173,12.0,43.0,0,0.00,,,0.00,163.000000,,2013-03-03 19:11:00,
2013-03-03 09:21:00,70.0,-27.0,-100.00,South,173,12.0,43.0,0,0.00,,,0.00,163.000000,,2013-03-03 19:21:00,
2013-03-03 09:31:00,70.0,-27.0,-100.00,South,173,12.0,43.0,0,0.00,,,0.00,163.000000,,2013-03-03 19:31:00,
2013-03-03 09:42:00,70.0,-27.0,-100.00,South,173,12.0,43.0,0,0.00,,,0.00,163.000000,,2013-03-03 19:42:00,
2013-03-03 09:51:00,70.0,-27.0,-100.00,South,173,12.0,43.0,0,0.00,,,0.00,163.000000,,2013-03-03 19:51:00,
2013-03-03 09:52:00,72.0,-26.0,-100.00,NE,50,12.0,26.0,0,0.00,,,0.00,480.000000,,2013-03-03 19:52:00,
2013-03-03 10:11:00,72.0,-26.0,-100.00,NE,50,12.0,26.0,0,0.00,,,0.00,480.000000,,2013-03-03 20:11:00,
2013-03-03 10:21:00,72.0,-26.0,-100.00,NE,50,12.0,26.0,0,0.00,,,0.00,480.000000,,2013-03-03 20:21:00,
2013-03-03 10:32:00,72.0,-26.0,-100.00,NE,50,12.0,26.0,0,0.00,,,0.00,480.000000,,2013-03-03 20:32:00,
2013-03-03 10:42:00,72.0,-26.0,-100.00,NE,50,12.0,26.0,0,0.00,,,0.00,480.000000,,2013-03-03 20:42:00,
2013-03-03 11:11:00,71.0,-26.0,-100.00,East,86,20.0,43.0,0,0.00,,,0.00,751.000000,,2013-03-03 21:11:00,
2013-03-03 11:21:00,71.0,-26.0,-100.00,East,86,20.0,43.0,0,0.00,,,0.00,751.000000,,2013-03-03 21:21:00,
2013-03-03 11:31:00,71.0,-26.0,-100.00,East,86,20.0,43.0,0,0.00,,,0.00,751.000000,,2013-03-03 21:31:00,
2013-03-03 11:41:00,71.0,-26.0,-100.00,East,86,20.0,43.0,0,0.00,,,0.00,751.000000,,2013-03-03 21:41:00,
2013-03-03 11:51:00,71.0,-26.0,-100.00,East,86,20.0,43.0,0,0.00,,,0.00,751.000000,,2013-03-03 21:51:00,
2013-03-03 11:52:00,74.0,-25.0,-100.00,East,97,22.0,38.0,0,0.00,,,0.00,887.000000,,2013-03-03 21:52:00,
2013-03-03 12:11:00,74.0,-25.0,-100.00,East,97,22.0,38.0,0,0.00,,,0.00,887.000000,,2013-03-03 22:11:00,
2013-03-03 12:21:00,74.0,-25.0,-100.00,East,97,22.0,38.0,0,0.00,,,0.00,887.000000,,2013-03-03 22:21:00,
2013-03-03 12:31:00,74.0,-25.0,-100.00,East,97,22.0,38.0,0,0.00,,,0.00,887.000000,,2013-03-03 22:31:00,
2013-03-03 12:42:00,74.0,-25.0,-100.00,East,97,22.0,38.0,0,0.00,,,0.00,887.000000,,2013-03-03 22:42:00,
2013-03-03 12:52:00,73.0,-25.0,-100.00,SW,234,16.0,36.0,0,0.00,,,0.00,1005.000000,,2013-03-03 22:52:00,
2013-03-03 13:11:00,73.0,-25.0,-100.00,SW,234,16.0,36.0,0,0.00,,,0.00,1005.000000,,2013-03-03 23:11:00,
2013-03-03 13:21:00,73.0,-25.0,-100.00,SW,234,16.0,36.0,0,0.00,,,0.00,1005.000000,,2013-03-03 23:21:00,
2013-03-03 13:31:00,73.0,-25.0,-100.00,SW,234,16.0,36.0,0,0.00,,,0.00,1005.000000,,2013-03-03 23:31:00,
2013-03-03 13:41:00,73.0,-25.0,-100.00,SW,234,16.0,36.0,0,0.00,,,0.00,1005.000000,,2013-03-03 23:41:00,
2013-03-03 14:11:00,72.0,-26.0,-100.00,SSE,168,18.0,39.0,0,0.00,,,0.00,1047.000000,,2013-03-04 00:11:00,
2013-03-03 14:21:00,72.0,-26.0,-100.00,SSE,168,18.0,39.0,0,0.00,,,0.00,1047.000000,,2013-03-04 00:21:00,
2013-03-03 14:32:00,72.0,-26.0,-100.00,SSE,168,18.0,39.0,0,0.00,,,0.00,1047.000000,,2013-03-04 00:32:00,
2013-03-03 14:41:00,72.0,-26.0,-100.00,SSE,168,18.0,39.0,0,0.00,,,0.00,1047.000000,,2013-03-04 00:41:00,
2013-03-03 14:51:00,72.0,-26.0,-100.00,SSE,168,18.0,39.0,0,0.00,,,0.00,1047.000000,,2013-03-04 00:51:00,
2013-03-03 15:21:00,73.0,-25.0,-100.00,West,277,18.0,42.0,0,0.00,,,0.00,930.000000,,2013-03-04 01:21:00,
2013-03-03 15:31:00,73.0,-25.0,-100.00,West,277,18.0,42.0,0,0.00,,,0.00,930.000000,,2013-03-04 01:31:00,
2013-03-03 15:42:00,73.0,-25.0,-100.00,West,277,18.0,42.0,0,0.00,,,0.00,930.000000,,2013-03-04 01:42:00,
2013-03-03 15:51:00,73.0,-25.0,-100.00,West,277,18.0,42.0,0,0.00,,,0.00,930.000000,,2013-03-04 01:51:00,
2013-03-03 15:52:00,73.0,-25.0,-100.00,NE,40,19.0,39.0,0,0.00,,,0.00,684.000000,,2013-03-04 01:52:00,
2013-03-03 16:11:00,73.0,-25.0,-100.00,NE,40,19.0,39.0,0,0.00,,,0.00,684.000000,,2013-03-04 02:11:00,
2013-03-03 16:22:00,73.0,-25.0,-100.00,NE,40,19.0,39.0,0,0.00,,,0.00,684.000000,,2013-03-04 02:22:00,
2013-03-03 16:31:00,73.0,-25.0,-100.00,NE,40,19.0,39.0,0,0.00,,,0.00,684.000000,,2013-03-04 02:31:00,
2013-03-03 16:41:00,73.0,-25.0,-100.00,NE,40,19.0,39.0,0,0.00,,,0.00,684.000000,,2013-03-04 02:41:00,
2013-03-03 16:52:00,72.0,-26.0,-100.00,ESE,119,20.0,35.0,0,0.00,,,0.00,348.000000,,2013-03-04 02:52:00,
2013-03-03 17:21:00,72.0,-26.0,-100.00,ESE,119,20.0,35.0,0,0.00,,,0.00,348.000000,,2013-03-04 03:21:00,
2013-03-03 17:32:00,72.0,-26.0,-100.00,ESE,119,20.0,35.0,0,0.00,,,0.00,348.000000,,2013-03-04 03:32:00,
2013-03-03 17:41:00,72.0,-26.0,-100.00,ESE,119,20.0,35.0,0,0.00,,,0.00,348.000000,,2013-03-04 03:41:00,
2013-03-03 18:22:00,69.0,-28.0,-100.00,NNE,25,19.0,35.0,0,0.00,,,0.00,293.000000,,2013-03-04 04:22:00,
2013-03-03 18:32:00,69.0,-28.0,-100.00,NNE,25,19.0,35.0,0,0.00,,,0.00,293.000000,,2013-03-04 04:32:00,
2013-03-03 18:42:00,69.0,-28.0,-100.00,NNE,25,19.0,35.0,0,0.00,,,0.00,293.000000,,2013-03-04 04:42:00,
2013-03-03 18:51:00,69.0,-28.0,-100.00,NNE,25,19.0,35.0,0,0.00,,,0.00,293.000000,,2013-03-04 04:51:00,
2013-03-03 18:52:00,69.0,-28.0,-100.00,SSE,147,13.0,29.0,0,0.00,,,0.00,68.000000,,2013-03-04 04:52:00,
2013-03-03 19:11:00,69.0,-28.0,-100.00,SSE,147,13.0,29.0,0,0.00,,,0.00,68.000000,,2013-03-04 05:11:00,
2013-03-03 19:22:00,69.0,-28.0,-100.00,SSE,147,13.0,29.0,0,0.00,,,0.00,68.000000,,2013-03-04 05:22:00,
2013-03-03 19:31:00,69.0,-28.0,-100.00,SSE,147,13.0,29.0,0,0.00,,,0.00,68.000000,,2013-03-04 05:31:00,
2013-03-03 19:42:00,69.0,-28.0,-100.00,SSE,147,13.0,29.0,0,0.00,,,0.00,68.000000,,2013-03-04 05:42:00,
2013-03-03 20:11:00,68.0,-28.0,-100.00,ESE,105,16.0,27.0,0,0.00,,,0.00,5.000000,,2013-03-04 06:11:00,
2013-03-03 20:21:00,68.0,-28.0,-100.00,ESE,105,16.0,27.0,0,0.00,,,0.00,5.000000,,2013-03-04 06:21:00,
2013-03-03 20:31:00,68.0,-28.0,-100.00,ESE,105,16.0,27.0,0,0.00,,,0.00,5.000000,,2013-03-04 06:31:00,
2013-03-03 20:42:00,68.0,-28.0,-100.00,ESE,105,16.0,27.0,0,0.00,,,0.00,5.000000,,2013-03-04 06:42:00,
2013-03-03 20:51:00,68.0,-28.0,-100.00,ESE,105,16.0,27.0,0,0.00,,,0.00,5.000000,,2013-03-04 06:51:00,
2013-03-03 21:21:00,67.0,-29.0,-100.00,North,351,14.0,33.0,0,0.00,,,0.00,0.000000,,2013-03-04 07:21:00,
2013-03-03 21:32:00,67.0,-29.0,-100.00,North,351,14.0,33.0,0,0.00,,,0.00,0.000000,,2013-03-04 07:32:00,
2013-03-03 21:41:00,67.0,-29.0,-100.00,North,351,14.0,33.0,0,0.00,,,0.00,0.000000,,2013-03-04 07:41:00,
2013-03-03 21:51:00,67.0,-29.0,-100.00,North,351,14.0,33.0,0,0.00,,,0.00,0.000000,,2013-03-04 07:51:00,
2013-03-03 21:52:00,67.0,-29.0,-100.00,WSW,253,18.0,49.0,0,0.00,,,0.00,0.000000,,2013-03-04 07:52:00,
2013-03-03 22:11:00,67.0,-29.0,-100.00,WSW,253,18.0,49.0,0,0.00,,,0.00,0.000000,,2013-03-04 08:11:00,
2013-03-03 22:21:00,67.0,-29.0,-100.00,WSW,253,18.0,49.0,0,0.00,,,0.00,0.000000,,2013-03-04 08:21:00,
2013-03-03 22:31:00,67.0,-29.0,-100.00,WSW,253,18.0,49.0,0,0.00,,,0.00,0.000000,,2013-03-04 08:31:00,
2013-03-03 22:41:00,67.0,-29.0,-100.00,WSW,253,18.0,49.0,0,0.00,,,0.00,0.000000,,2013-03-04 08:41:00,
2013-03-03 23:11:00,66.0,-29.0,-100.00,ENE,72,11.0,49.0,0,0.00,,,0.00,0.000000,,2013-03-04 09:11:00,
2013-03-03 23:21:00,66.0,-29.0,-100.00,ENE,72,11.0,49.0,0,0.00,,,0.00,0.000000,,2013-03-04 09:21:00,
2013-03-03 23:31:00,66.0,-29.0,-100.00,ENE,72,11.0,49.0,0,0.00,,,0.00,0.000000,,2013-03-04 09:31:00,
2013-03-03 23:42:00,66.0,-29.0,-100.00,ENE,72,11.0,49.0,0,0.00,,,0.00,0.000000,,2013-03-04 09:42:00,
2013-03-03 23:51:00,66.0,-29.0,-100.00,ENE,72,11.0,49.0,0,0.00,,,0.00,0.000000,,2013-03-04 09:51:00,
2013-03-03 23:52:00,67.0,-29.0,-100.00,NNE,12,13.0,34.0,0,0.00,,,0.00,0.000000,,2013-03-04 09:52:00,